Weather History for Anoka County, MN

Change the Weather History Date:

Monday, May 27, 2013

  Actual Average Record
Temperature  
Mean Temperature 58 °F -  
Max Temperature 62 °F 66 °F 89 °F (2012)
Min Temperature 55 °F 47 °F 37 °F (1997)
Degree Days  
Heating Degree Days 6    
Growing Degree Days 8 (Base 50)    
Moisture  
Dew Point 50 °F    
Average Humidity 75    
Maximum Humidity 100    
Minimum Humidity 59    
Precipitation  
Precipitation 0.00 in - - ()
Sea Level Pressure  
Sea Level Pressure 29.95 in    
Wind  
Wind Speed 10 mph (East)    
Max Wind Speed 14 mph    
Max Gust Speed 18 mph    
Visibility 8 miles    
Events Rain    
Averages and records for this station are not official NWS values.
T = Trace of Precipitation, MM = Missing Value Source: NWS Daily Summary

Daily Weather History Graph

Daily Weather History Graph

Search for Another Location

Airport:

Trip Planner

Search our weather history database for the weather conditions in past years. The results will help you decide how hot, cold, wet, or windy it might be!

Date:

Astronomy

May. 27, 2013 Rise Set
Actual Time 5:31 AM CDT 8:48 PM CDT
Civil Twilight 4:55 AM CDT 9:24 PM CDT
Nautical Twilight 4:09 AM CDT 10:11 PM CDT
Astronomical Twilight 3:11 AM CDT 11:10 PM CDT
Moon 11:24 PM CDT (5/27) 8:11 AM CDT (5/27)
Length of Visible Light 16h 28m
Length of Day
15h 16m
Waning Gibbous, 91% of the Moon is Illuminated
May 27
Waning Gibbous
May 31
Last Quarter
Jun 8
New
Jun 16
First Quarter
Jun 23
Full

Hourly Weather History & Observations

Time (CDT) Temp. Dew Point Humidity Pressure Visibility Wind Dir Wind Speed Gust Speed Precip Events Conditions
12:14 AM 60.8 °F 46.4 °F 59% 30.04 in 10.0 mi East 10.4 mph 16.1 mph N/A   Overcast
12:34 AM 60.8 °F 46.4 °F 59% 30.05 in 10.0 mi East 9.2 mph - N/A   Overcast
12:54 AM 59.0 °F 46.4 °F 63% 30.06 in 10.0 mi East 5.8 mph - N/A   Overcast
1:13 AM 59.0 °F 46.4 °F 63% 30.04 in 10.0 mi East 9.2 mph - N/A   Overcast
1:34 AM 59.0 °F 46.4 °F 63% 30.03 in 10.0 mi East 9.2 mph - N/A   Overcast
1:54 AM 59.0 °F 46.4 °F 63% 30.03 in 10.0 mi East 11.5 mph 16.1 mph N/A   Overcast
2:13 AM 59.0 °F 46.4 °F 63% 30.02 in 10.0 mi East 10.4 mph 18.4 mph N/A   Overcast
2:34 AM 59.0 °F 46.4 °F 63% 30.02 in 10.0 mi ESE 12.7 mph 17.3 mph N/A   Overcast
2:54 AM 59.0 °F 46.4 °F 63% 30.03 in 10.0 mi ESE 12.7 mph 17.3 mph N/A   Overcast
3:13 AM 59.0 °F 46.4 °F 63% 30.02 in 10.0 mi ESE 9.2 mph - N/A   Overcast
3:34 AM 59.0 °F 48.2 °F 67% 30.01 in 10.0 mi East 10.4 mph - N/A   Overcast
3:54 AM 57.2 °F 48.2 °F 72% 30.00 in 10.0 mi East 6.9 mph - N/A   Overcast
4:13 AM 57.2 °F 48.2 °F 72% 29.98 in 10.0 mi East 9.2 mph - N/A   Overcast
4:34 AM 57.2 °F 48.2 °F 72% 29.99 in 10.0 mi East 8.1 mph - N/A   Overcast
4:54 AM 57.2 °F 48.2 °F 72% 30.00 in 10.0 mi East 10.4 mph - N/A   Overcast
5:14 AM 57.2 °F 48.2 °F 72% 29.99 in 10.0 mi East 9.2 mph - N/A   Overcast
5:34 AM 57.2 °F 48.2 °F 72% 29.99 in 10.0 mi East 6.9 mph - N/A   Overcast
5:54 AM 57.2 °F 48.2 °F 72% 30.00 in 10.0 mi ESE 6.9 mph - N/A   Overcast
6:14 AM 57.2 °F 48.2 °F 72% 30.00 in 10.0 mi East 9.2 mph - N/A   Overcast
6:34 AM 57.2 °F 48.2 °F 72% 30.00 in 10.0 mi East 11.5 mph - N/A   Overcast
6:50 AM 57.2 °F 48.2 °F 72% 30.00 in 7.0 mi East 11.5 mph 18.4 mph N/A   Overcast
6:53 AM 57.2 °F 48.2 °F 72% 30.00 in 10.0 mi ESE 10.4 mph 18.4 mph N/A   Overcast
7:45 AM 57.2 °F 48.2 °F 72% 29.98 in 7.0 mi East 11.5 mph 18.4 mph N/A   Overcast
8:45 AM 57.2 °F 48.2 °F 72% 29.97 in 7.0 mi East 11.5 mph - N/A   Overcast
9:45 AM 59.0 °F 48.2 °F 67% 29.97 in 7.0 mi East 11.5 mph - N/A   Overcast
10:19 AM 59.0 °F 46.4 °F 63% 29.96 in 7.0 mi East 12.7 mph - N/A   Overcast
10:45 AM 59.0 °F 48.2 °F 67% 29.96 in 10.0 mi East 12.7 mph - N/A   Overcast
11:45 AM 59.0 °F 48.2 °F 67% 29.92 in 10.0 mi East 11.5 mph 18.4 mph N/A   Overcast
12:45 PM 60.8 °F 51.8 °F 72% 29.90 in 10.0 mi East 13.8 mph 18.4 mph N/A   Overcast
1:45 PM 60.8 °F 51.8 °F 72% 29.91 in 10.0 mi East 10.4 mph - N/A   Overcast
2:45 PM 60.8 °F 51.8 °F 72% 29.90 in 10.0 mi East 11.5 mph - N/A   Overcast
3:55 PM 62.6 °F 53.6 °F 72% 29.90 in 8.0 mi East 13.8 mph - N/A   Overcast
4:45 PM 60.8 °F 53.6 °F 77% 29.89 in 10.0 mi East 11.5 mph - N/A   Overcast
5:45 PM 60.8 °F 55.4 °F 82% 29.88 in 7.0 mi East 11.5 mph - N/A   Overcast
7:55 PM - - N/A% 29.86 in 3.0 mi East 10.4 mph - N/A Rain Light Rain
8:50 PM 57.2 °F 55.4 °F 94% 29.88 in 3.0 mi ENE 6.9 mph - N/A Rain Light Rain
9:14 PM 57.2 °F 55.4 °F 94% 29.88 in 4.0 mi ENE 4.6 mph - N/A Rain Rain
9:34 PM 57.2 °F 55.4 °F 94% 29.88 in 3.0 mi ENE 6.9 mph - N/A   Drizzle
9:50 PM 57.2 °F 55.4 °F 94% 29.88 in 3.0 mi ENE 6.9 mph - N/A Rain Light Rain
9:54 PM 57.2 °F 55.4 °F 94% 29.88 in 4.0 mi East 9.2 mph - N/A   Light Drizzle
10:13 PM 57.2 °F 55.4 °F 94% 29.87 in 5.0 mi East 11.5 mph - N/A   Overcast
10:34 PM 55.4 °F 55.4 °F 100% 29.86 in 7.0 mi East 8.1 mph - N/A   Overcast
10:54 PM 55.4 °F 55.4 °F 100% 29.86 in 10.0 mi East 8.1 mph - N/A   Overcast
11:13 PM 57.2 °F 55.4 °F 94% 29.86 in 10.0 mi East 9.2 mph - N/A   Overcast
11:34 PM 57.2 °F 53.6 °F 88% 29.86 in 10.0 mi East 5.8 mph - N/A   Overcast
11:54 PM 57.2 °F 53.6 °F 88% 29.85 in 10.0 mi East 6.9 mph - N/A   Overcast